COSMOS 2251 DEB, 36451

Orbit data source: Space-Track

COSMOS 2251 DEB, 36451 is space debris in LEO originally from a launch on Wed, 16 Jun 1993 UTC launched from the Plesetsk Missile And Space Complex (PKMTR). The debris from Iridium 33, an American commercial communications satellite, has been tracked extensively since its accidental collision with the defunct Russian satellite Cosmos 2251 in 2009. This event, occurring at high speed in low Earth orbit (LEO), generated thousands of pieces of space debris, significantly increasing the risk of further collisions. The Iridium 33 debris cloud has impacted space traffic management and orbital debris mitigation strategies, making it a subject of ongoing study in space situational awareness.

Loading next visibility...
Identifier
36451, 1993-036BBA
Orbit
LEO
Country
Flag of CISCIS
Related business
Manufacturer
Unknown
Mission
Spacecraft
Bus & Motor
Unknown
Mass
Unknown
Launch date (UTC)
1993-06-16 (33 years ago)
Launch vehicle
Unknown
Launch site
Plesetsk Missile And Space Complex (PKMTR)
Object type
Payload
Rocket body
Debris
Shape & HBR
Unknown shape, 0.1 m
Radar Cross Section
Small (<0.1 m²)

Expand to show TLE details & history
Last TLE update: 2 days ago

TLE from 2 days ago
0 COSMOS 2251 DEB
1 36451U 93036BBA 26033.82998485  .00002066  00000-0  84671-3 0  9990
2 36451  73.9505 241.7049 0183979  54.0273 307.7775 14.18994490849641
Epoch: 2026-02-02T19:55Z
TLE epoch observation values (Epoch: 2026-02-02T19:55:10.691Z)
Latitude
0.00004°
Longitude
169.89072°
Altitude
751.652 km
Speed
7.52 km/s
True Right ascension
16h 06m 49s
True Declination
0° 00' 00"
Sunlit
Object was in daylight at epoch
Visualization orbit readout
Latitude
Unknown
Longitude
Unknown
Altitude
Unknown
Speed
Unknown
Apparent Right ascension
Unknown
Apparent Declination
Unknown
Sunlit
N/A
Visualization observer readout
Local Sidereal Time
00:57:33
Azimuth
Unknown
Elevation
Unknown
Doppler factor
Unknown
Orbital elements
Apogee altitude
958.953 km
Perigee altitude
693.856 km
Semi-major axis
7,204.541 km
Eccentricity
0.0184
Inclination
73.9505°
RAAN
241.7049°
Arg. of periapsis
54.0273°
True anomaly
306.0876°
Mean anomaly
307.7775°
Eccentric anomaly
306.93492°
Mean motion
3.54923 °/min
Orbital period
101.43 mins
BSTAR
0.00084671
Loading maneuver chart data...
Computing Atmospheric mass density...

Documentation

Showing up to 5 results
|